Flight Track Log - Related Links

Times and Time Zones

All times are in EDT time to prevent confusion due to time zone crossing. See the N3096B flight status page for this flight to view local times or setup timezone preferences in your user account.

Time Position Orientation Groundspeed Altitude Reporting Facility
EDT Latitude Longitude Course Direction KTS MPH feet Rate Location/Type
Mon 12:37:50 PM 42.1167 -87.9167 North 93 107 1,800  Level Chicago TRACON
Mon 12:38:29 PM 42.1417 -87.9106 10° North 114 131 2,100 416 Climbing Chicago Center
Mon 12:39:31 PM 42.1706 -87.9097 North 107 123 2,500 435 Climbing Chicago Center
Mon 12:40:33 PM 42.1994 -87.9119 357° North 106 122 3,000 484 Climbing Chicago Center
Mon 12:41:35 PM 42.2283 -87.9139 357° North 105 121 3,500 435 Climbing Chicago Center
Mon 12:42:00 PM 42.2771 -87.9104 North  Level Estimated
Mon 12:42:37 PM 42.2567 -87.9136 360° North 103 119 3,900  Level Chicago Center
Mon 12:43:00 PM 42.3042 -87.9118 North  Level Estimated
Mon 12:43:39 PM 42.2914 -87.9150 358° North 104 120 4,500  Level Chicago Center
Mon 12:44:41 PM 42.3183 -87.9133 North 100 115 4,900 242 Climbing Chicago Center
Mon 12:45:43 PM 42.3458 -87.9139 359° North 106 122 5,000 48 Climbing Chicago Center
Mon 12:46:45 PM 42.3842 -87.9131 North 113 130 5,000  Level Chicago Center
Mon 12:47:47 PM 42.4081 -87.9397 321° Northwest 115 132 5,000  Level Chicago Center
Mon 12:48:49 PM 42.4283 -87.9731 310° West 116 133 5,000 -242 Level Chicago Center
Mon 12:49:51 PM 42.4489 -88.0081 309° West 117 135 4,500 -484 Descending Chicago Center
Mon 12:50:53 PM 42.4700 -88.0442 308° West 121 139 4,000 -242 Descending Chicago Center
Mon 12:51:55 PM 42.4883 -88.0794 305° West 117 135 4,000 -48 Level Chicago Center
Mon 12:52:57 PM 42.5139 -88.1194 311° West 119 137 3,900 -48 Descending Chicago Center
Mon 12:54:00 PM 42.5361 -88.1006 32° Northeast 128 147 3,900 -384 Level Chicago Center
Mon 12:55:02 PM 42.5469 -88.0650 68° East 107 123 3,100 -823 Descending Chicago Center
Mon 12:56:04 PM 42.5589 -88.0306 65° Northeast 106 122 2,200 -484 Descending Chicago Center
Mon 12:57:06 PM 42.5706 -88.0000 63° Northeast 105 121 2,100 -286 Descending Chicago Center
Mon 12:59:13 PM 42.6000 -87.9333 59° Northeast 94 108 1,300 -107 Descending KMKE
Mon 12:59:54 PM 42.6000 -87.9000 90° East 92 106 1,800 588 Climbing KMKE
Mon 01:00:55 PM 42.6167 -87.9000 360° North 108 124 2,300 595 Climbing KMKE
Mon 01:01:55 PM 42.6167 -87.9333 270° West 112 129 3,000 550 Climbing KMKE
Mon 01:02:55 PM 42.6000 -87.9667 236° Southwest 110 127 3,400 450 Climbing KMKE
Mon 01:03:55 PM 42.5833 -88.0000 236° Southwest 107 123 3,900 250 Climbing KMKE
Mon 01:04:55 PM 42.5667 -88.0333 236° Southwest 118 136 3,900 48 Level KMKE
Mon 01:06:01 PM 42.5500 -88.0833 246° West 118 136 4,000 48 Climbing KMKE
Mon 01:07:01 PM 42.5667 -88.0667 36° Northeast 108 124 4,000 -50 Level KMKE
Mon 01:08:01 PM 42.5667 -88.0333 90° East 107 123 3,900 -50 Descending KMKE
Mon 01:09:01 PM 42.5833 -88.0333 360° North 112 129 3,900  Level KMKE
Mon 01:09:55 PM 42.5667 -88.0667 236° Southwest 111 128 3,900 53 Level KMKE
Mon 01:10:55 PM 42.5500 -88.0833 216° Southwest 121 139 4,000 48 Climbing KMKE
Mon 01:12:01 PM 42.5667 -88.0333 66° East 114 131 4,000  Level KMKE
Mon 01:13:02 PM 42.5833 -88.0333 360° North 106 122 4,000 -50 Level KMKE
Mon 01:14:02 PM 42.5667 -88.0667 236° Southwest 116 133 3,900 -59 Descending KMKE
Mon 01:14:44 PM 42.5667 -88.1000 270° West 110 127 3,900  Level KMKE
Mon 01:15:56 PM 42.5500 -88.0667 124° Southeast 113 130 3,900 45 Level KMKE
Mon 01:16:56 PM 42.5667 -88.0333 56° Northeast 109 125 4,000 56 Climbing KMKE
Mon 01:17:44 PM 42.5833 -88.0167 36° Northeast 113 130 4,000 -333 Level KMKE
Mon 01:18:44 PM 42.5833 -88.0667 270° West 124 143 3,400 -476 Descending KMKE
Mon 01:19:50 PM 42.6000 -88.1000 304° West 114 131 3,000 -174 Descending KMKE
Mon 01:21:02 PM 42.6167 -88.0667 56° Northeast 95 109 3,000  Level KMKE
Mon 01:22:03 PM 42.6000 -88.0333 124° Southeast 95 109 3,000 -52 Level KMKE
Mon 01:22:57 PM 42.6000 -88.0000 90° East 100 115 2,900  Descending KMKE
Mon 01:23:57 PM 42.6000 -87.9667 90° East 96 110 3,000 53 Climbing KMKE
Mon 01:24:51 PM 42.6000 -87.9333 90° East 111 128 3,000  Level KMKE
Mon 01:25:51 PM 42.6333 -87.9500 340° North 115 132 3,000  Level KMKE
Mon 01:26:51 PM 42.6667 -87.9667 340° North 110 127 3,000 -50 Level KMKE
Mon 01:27:51 PM 42.6833 -88.0000 304° West 117 135 2,900  Descending KMKE
Mon 01:29:09 PM 42.7167 -88.0333 324° Northwest 114 131 3,000  Climbing KMKE
Mon 01:30:09 PM 42.7167 -87.9833 90° East 100 115 2,900 -222 Descending KMKE
Mon 01:30:57 PM 42.6833 -87.9833 180° South 105 121 2,600 -500 Descending KMKE
Mon 01:31:57 PM 42.6667 -87.9667 144° Southeast 102 117 2,000 -476 Descending KMKE
Mon 01:33:03 PM 42.6333 -87.9500 160° South 100 115 1,600 -240 Descending KMKE
Mon 01:34:27 PM 42.6000 -87.9500 180° South 107 123 1,400 -176 Descending KMKE
Mon 01:34:45 PM 42.6000 -87.9500 180° South 109 125 1,300 -333 Descending KMKE

Login

Don't have an account? Register now (free) for customized features, flight alerts, and more!